www.pogodaiklimat.ru

Погода и климат >> Архив погоды >> Мали >> Сан


ПОГОДА в Сане

  • Прогноз погоды в Сане
  • Монитор погоды в Сане

АРХИВ ПОГОДЫ в Сане

Время (UTC), дата Ветер
(напр.,м/с)
 
Видим.   Явления Облачность Т
(С)
Тd
(С)
f
(%)
Тe
(С)
Тes
(С)
Комфортность P
(гПа)
Po
(гПа)
Тmin
(С)
Tmax
(С)
R
(мм)
R24
(мм)
S
(см)
00 11.06 штиль 0 10 км гроза без осадков 10/9 900 м
[Cb cap Ac As]
+27.0 +23.7 82 +37 +37 очень
душно
1010.6 979.2 3
06 11.06 Ю 2 10 км {гроза, дождь} 9/1 900 м
[Sc Ac As]
+25.7 +20.7 74 +32 +32 очень
душно
1010.0 978.4 +23.0 10
12 11.06 С 2 10 км 8/1 900 м
[Sc Ac lent Ci sp]
+31.6 +24.0 64 +43 +55 опасность
перегрева
1011.5 979.8
18 11.06 штиль 0 10 км {гроза} 8/1 900 м
[Sc Ac lent Ci sp]
+31.5 +24.5 66 +44 +44 опасность
перегрева
1008.3 976.5 +39.0
00 12.06 ЮЗ 2 10 км 8/0
[Ac As]
+28.0 +23.7 77 +38 +38 очень
душно
1010.6 979.0
06 12.06 штиль 0 10 км 6/0
[Ac lent Ci sp]
+26.5 +24.4 88 +37 +37 очень
душно
1011.6 977.9 +26.0
12 12.06 ЮЗ 2 10 км 8/3 900 м
[Sc Ac lent Ci sp]
+33.4 +23.8 57 +45 +54 опасность
перегрева
1011.9 980.3
18 12.06 ЮЗ 2 10 км 8/3 900 м
[Sc Ci sp]
+36.0 +20.7 41 +43 +43 опасность
перегрева
1008.8 977.4 +37.0
00 13.06 ЮЗ 2 10 км зарница 4/1 1200 м
[Cb calv Ci sp]
+30.3 +21.7 60 +39 +39 очень
душно
1012.2 980.7
06 13.06 ЮЗ 2 10 км 8/0
[Ac lent Ci sp]
+28.0 +23.1 75 +38 +38 очень
душно
1011.8 980.4 +27.5
12 13.06 ЮЗ 2 10 км 8/1 900 м
[Sc Ac lent Ci sp]
+34.0 +24.2 57 +46 +58 опасность
перегрева
1012.7 981.3
18 13.06 ЮЗ 2 10 км 8/1 900 м
[Sc Ac As Ci sp]
+30.5 +22.1 61 +39 +40 очень
душно
1010.1 978.4 +37.3
21 13.06 ЮЗ 2 10 км зарница 6/1 1200 м
[Cb calv Ac lent Ci sp]
+30.4 +22.1 61 +39 +39 очень
душно
1012.6 981.0
00 14.06 ЮЗ 2 10 км 6/0
[Ac lent Ci sp]
+28.7 +23.8 75 +40 +40 очень
душно
1012.7 981.2
03 14.06 штиль 0 10 км 5/0
[Ac lent Ci sp]
+28.5 +22.9 72 +38 +38 очень
душно
1011.1 979.8
06 14.06 штиль 0 10 км 3/0
[Ac lent Ci sp]
+27.3 +24.0 82 +38 +38 очень
душно
1012.2 980.4 +26.8
09 14.06 штиль 0 10 км 4/0
[Ci sp]
+31.5 +23.2 61 +42 +54 опасность
перегрева
1013.5 981.9
12 14.06 ЮЗ 2 10 км 4/0
[Ci sp]
+36.2 +22.7 46 +46 +65 опасность
перегрева
1012.4 981.0
15 14.06 штиль 0 10 км 5/4 900 м
[Sc Ac lent Ci sp]
+38.7 +23.8 43 +50 +59 опасность
перегрева
1009.5 978.3
18 14.06 штиль 0 10 км в посл. час гроза {дождь} 6/1 900 м
[Sc Ac lent Ci sp]
+32.0 +22.7 58 +42 +42 опасность
перегрева
1009.5 977.9 +39.0 0.8
21 14.06 штиль 0 10 км 8/0
[Ac lent Ci sp]
+31.6 +22.6 59 +41 +41 опасность
перегрева
1011.5 980.1
00 15.06 ЮЗ 2 10 км зарница 8/1 1200 м
[Cb calv Ac lent Ci sp]
+28.6 +23.5 74 +39 +39 очень
душно
1011.5 980.1
03 15.06 ЮЗ 2 10 км гроза без осадков 8/1 1200 м
[Cb cap Ac lent Ci sp]
+27.0 +24.2 85 +38 +38 очень
душно
1010.3 979.0
06 15.06 штиль 0 10 км дождь {гроза} 8/1 900 м
[Sc Ac lent Ci sp]
+27.4 +23.5 79 +37 +37 очень
душно
1010.6 979.0 +26.0 3
09 15.06 штиль 0 10 км {дождь} 4/0
[Ci sp]
+30.0 +22.8 65 +40 +52 опасность
солнечного
удара
1013.1 981.5
12 15.06 ЮЗ 2 10 км {дождь} 3/0
[Ci sp]
+35.5 +23.6 50 +46 +66 опасность
перегрева
1011.4 980.0
15 15.06 ЮЗ 2 10 км ясно +28.5 +22.2 69 +37 +50 очень
душно
1009.1 977.9
18 15.06 штиль 0 10 км 4/0
[Ac lent Ci sp]
+37.6 +21.4 39 +45 +45 опасность
перегрева
1009.4 978.1 +39.0
21 15.06 штиль 0 10 км 4/0
[Ac lent Ci sp]
+34.0 +21.8 49 +42 +42 опасность
перегрева
1011.9 980.5
00 16.06 штиль 0 10 км гроза, ливневой дождь 10/1 1200 м
[Cb cap Ac As]
+25.5 +20.2 73 +31 +31 очень
душно
1012.7 981.1 6
03 16.06 штиль 0 10 км {гроза, дождь} 9/0
[Ac As]
+25.5 +21.8 80 +33 +33 очень
душно
1010.4 979.0
06 16.06 штиль 0 10 км {гроза, дождь} 6/0
[Ac lent Ci sp]
+26.0 +22.4 81 +34 +34 очень
душно
1011.2 979.8 +24.7 7
09 16.06 ЮЗ 2 10 км 4/0
[Ac lent Ci sp]
+28.7 +22.2 68 +37 +45 очень
душно
1012.8 981.3
12 16.06 ЮЗ 2 10 км 3/0
[Ci sp]
+34.0 +22.6 51 +43 +63 опасность
перегрева
1012.2 980.6
15 16.06 ЮЗ 2 10 км 6/0
[Ci sp]
+38.2 +22.9 42 +48 +59 опасность
перегрева
1009.4 978.1
18 16.06 ЮЗ 2 10 км 6/0
[Ci sp]
+38.0 +22.7 42 +47 +48 опасность
перегрева
1008.4 977.1 +39.3
21 16.06 штиль 0 10 км 1/0
[Ac lent Ci sp]
+34.3 +24.1 55 +46 +46 опасность
перегрева
1010.8 979.4
00 17.06 штиль 0 10 км 1/0
[Ci sp]
+32.3 +25.4 67 +47 +47 опасность
перегрева
1011.4 980.1
03 17.06 С 5 10 км 4/0
[Ac lent Ci sp]
+25.7 +23.3 87 +35 +35 очень
душно
1013.0 981.6
06 17.06 С 6 10 км зарница 9/1 1200 м
[Cb calv Ac As]
+26.0 +20.0 70 +32 +32 очень
душно
1015.4 983.9 +24.5
09 17.06 штиль 0 10 км в посл. час гроза {дождь} 10/1 900 м
[Sc Ac As]
+27.0 +20.3 67 +33 +37 очень
душно
1010.4 978.9
12 17.06 штиль 0 10 км {гроза, дождь} 8/0
[Ac lent Ci sp]
+32.6 +23.1 57 +43 +62 опасность
перегрева
1011.1 979.8 4
15 17.06 ЮЗ 2 10 км 8/1 900 м
[Sc Ac lent Ci sp]
+35.7 +21.1 43 +43 +50 опасность
перегрева
1010.2 978.7
18 17.06 штиль 0 10 км 8/0
[Ac lent Ci sp]
+34.6 +22.3 49 +44 +44 опасность
перегрева
1009.6 978.1 +35.3 4
21 17.06 штиль 0 10 км 6/0
[Ac lent Ci sp]
+31.7 +25.9 71 +47 +47 опасность
перегрева
1011.5 979.8

 

Местоположение метеостанции Сан (Мали): широта 13.33 долгота -4.83 высота над уровнем моря 284 м.

В архиве по умолчанию представлена погода в Сане за последнюю неделю. Архивные данные за месяц целиком и за предыдущие месяцы, начиная с января 2011 года, Вы можете получить, выбрав интересующий диапазон дат из раскрывающегося списка и нажав кнопку "Ввод!".


*Определитесь, кто Вы:
робот инопланетянин человек

Внимание! Время в таблицах - всемирное. Для получения местного времени необходимо прибавить поправку, которая равна 0 ч.

Смотрите также архив погоды в соседних городах и на ближайших метеорологических станциях:

Погода в Кутиале (Мали) (126 км)
Погода в Сегу (Мали) (143 км)
Погода в Мопти (Мали) (154 км)
Погода в Дедугу (Буркина-Фасо) (175 км)
Погода в Сикасо (Мали) (239 км)
Погода в Бобо-Диуласо (Буркина-Фасо) (247 км)
Погода в Вахигуе (Буркина-Фасо) (262 км)
Погода в Боромо (Буркина-Фасо) (271 км)
Погода в Наре (Мали) (334 км)
Погода в Бамако (Мали) (350 км)

Пояснения к столбцам:

Ветер - указаны скорость ветра в м/с - средняя за 10 мин, порывы в срок и между сроками (в фигурных скобках) и направление, откуда дует ветер: С - северный, СВ - северо-восточный, В - восточный, ЮВ - юго-восточный, Ю - южный, ЮЗ - юго-западный, З - западный, СЗ - северо-западный.
Видимость - горизонтальная дальность видимости в метрах или километрах. При видимости от 1 до 10 км при отсутствии осадков обычно наблюдается дымка, при ухудшении видимости до 1 км и менее - туман. В сухую погоду видимость может ухудшаться дымом, пылью или мглою.
Явления - указаны атмосферные явления, наблюдавшиеся в срок или в последний час перед сроком; фигурными скобками обозначены явления, наблюдавшиеся между сроками (за 1-3 часа до срока); квадратными скобками обозначены град или гололедные отложения с указанием их диаметра в мм.
Облачность - указаны через наклонную черту общая и нижняя облачность в баллах и высота нижней границы облаков в метрах; квадратными скобками обозначены формы облаков: Ci - перистые, Cs - перисто-слоистые, Cc - перисто-кучевые, Ac - высококучевые, As - высокослоистые, Sc - слоисто-кучевые, Ns - слоисто-дождевые, Cu - кучевые, Cb - кучево-дождевые. Подробнее классификацию облаков см. в Атласе облаков (PDF).
T - Температура воздуха - температура, измеренная на высоте 2 м над землей.
Td - Температура точки росы - температура, при понижении до которой содержащийся в воздухе водяной пар достигнет насыщения.
f - Относительная влажность воздуха - влажноcть воздуха, измеренная на высоте 2 м над землей.
Te - Эффективная температура - температура, которую ощущает одетый по сезону человек в тени. Характеристика душности погоды. При расчете учитывается влияние влажности воздуха и скорости ветра на теплоощущения человека.
Tes - Эффективная температура на солнце - температура, которую ощущает человек, с поправкой на солнечный нагрев. Характеристика знойности погоды. Зависит от высоты солнца над горизонтом, облачности и скорости ветра. Ночью, в пасмурную погоду, а также при ветре 12 м/с и более поправка равна нулю.
P - Атмосферное давление - приведенное к уровню моря атмосферное давление.
Po - Атмосферное давление - измеренное на уровне метеостанции атмосферное давление.
Tmin - Минимальная температура - минимум температуры воздуха на высоте 2 м над землей.
Tmax - Максимальная температура - максимум температуры воздуха на высоте 2 м над землей.
R - Количество осадков - Количество выпавших осадков за период времени, мм. При наведении курсора мыши на число - период времени, за который выпало указанное количество осадков.
R24 - Количество осадков - Количество выпавших осадков за 24 часа, мм.
S - Снежный покров - Высота снежного покрова, см. При наведении курсора мыши на число - состояние снежного покрова и степень покрытия местности в баллах.